[[{"header":{"parameterUnit":"m.s-1","parameterCategory":1,"la1":30.2991,"la2":30.254,"lo1":-89.0895,"lo2":-89.0444,"dy":0.0017,"dx":0.0017,"nx":28,"ny":28,"refTime":"2023-06-19T21:00:00:Z","depth":0,"parameterNumber":2,"parameterNumberName":"U-component_of_WINDS"},"data":[0,0,0,0,0,0,0,0,0,0,0,0,0,0,0,0,0,0,0,0,0,0,0,0,0,0,0,0,0,0,0,0,0,0,0,0,0,0,0,0,0,0,0,0,0,0,0,0,0,0,0,0,0,0,0,0,0,0,1.4887,1.4888,0,1.4984,1.4985,1.4986,1.4982,1.4981,1.4979,1.4978,1.509,1.5094,1.5098,0,0,0,0,0,0,0,0,0,0,0,0,0,1.471,1.4713,1.4887,1.4888,1.4889,1.4984,1.4985,1.4986,1.4982,1.4981,1.4979,1.4977,1.5089,1.5094,1.5099,0,0,0,0,0,0,0,0,0,0,0,0,0,1.4795,1.4714,1.4887,1.4898,1.49,1.4983,1.4985,1.4987,1.4983,1.4981,1.4979,1.4977,1.5087,1.5093,1.51,1.5181,0,0,1.5119,1.5122,0,0,0,0,0,0,0,0,1.479,1.4802,1.4895,1.4898,1.49,1.4968,1.4964,1.5052,1.4983,1.4952,1.4978,1.4976,1.5052,1.5061,1.5085,1.5186,1.5191,1.512,1.5124,1.5126,1.5128,0,0,0,0,0,0,0,1.4784,1.4797,1.4926,1.4897,1.49,1.4903,1.4912,1.498,1.5013,1.4954,1.4954,1.4965,1.5053,1.5078,1.5087,1.5193,1.512,1.5125,1.5129,1.5132,1.5369,1.5371,0,0,0,0,0,0,1.4774,1.4793,1.4922,1.4928,1.4838,1.4907,1.4918,1.4949,1.5012,1.502,1.4967,1.4965,1.5068,1.508,1.5091,1.5192,1.5126,1.5132,1.5136,1.5366,1.5369,1.5372,0,0,0,0,0,0,1.477,1.4786,1.4919,1.486,1.4877,1.4913,1.4947,1.4952,1.4977,1.5021,1.5028,1.4986,1.5067,1.5082,1.5158,1.5196,1.5135,1.5141,1.5364,1.5367,1.5371,1.5394,0,0,0,0,0,0,1.4765,1.4784,1.4813,1.4861,1.488,1.4981,1.4949,1.4955,1.4986,1.4985,1.5041,1.5049,1.5067,1.5149,1.5165,1.5204,1.5146,1.536,1.5365,1.537,1.539,1.5398,1.5404,0,0,0,0,0,1.4759,1.4818,1.4814,1.483,1.4916,1.4983,1.4994,1.501,1.4989,1.5021,1.5049,1.5047,1.5188,1.5157,1.5175,1.5216,1.5358,1.5364,1.5369,1.5387,1.5396,1.5404,0,0,0,0,0,0,1.4779,1.4825,1.4821,1.4897,1.4935,1.4982,1.5021,1.502,1.5068,1.5065,1.5087,1.51,1.5176,1.5204,1.5167,1.5299,1.5271,1.5281,1.5278,1.5288,1.5295,1.5288,1.5152,0,0,0,0,0,1.479,1.4836,1.4876,1.4939,1.4958,1.4986,1.5016,1.5024,1.5067,1.5085,1.5119,1.5164,1.5219,1.5255,1.5307,1.5393,1.5407,1.5431,1.5438,1.5444,1.5453,1.5502,1.5514,1.539,1.539,1.539,0,0,1.4818,1.4849,1.4878,1.4944,1.4975,1.5026,1.5,1.5055,1.5095,1.5095,1.5168,1.5194,1.5246,1.5328,1.5366,1.5353,1.5489,1.5451,1.5455,1.5461,1.5509,1.5521,1.5531,1.5394,1.5393,1.5392,0,0,1.4895,1.4921,1.4977,1.5007,1.5053,1.5071,1.5084,1.5131,1.5147,1.522,1.5221,1.527,1.5363,1.54,1.5431,1.5521,1.5522,1.5538,1.5577,1.5625,1.5635,1.5643,1.5678,1.5689,1.5546,1.5546,1.5546,0,1.4925,1.4997,1.5007,1.5062,1.5092,1.5089,1.5148,1.5179,1.5241,1.5264,1.5248,1.5365,1.5399,1.549,1.5512,1.5536,1.5555,1.5532,1.5631,1.5641,1.5649,1.5682,1.5694,1.5547,1.5547,1.5547,1.5547,0,1.5033,1.5083,1.5123,1.5179,1.5214,1.527,1.5293,1.5327,1.5333,1.5354,1.5429,1.547,1.5532,1.5554,1.5561,1.5646,1.5637,1.5626,1.5599,1.5662,1.5694,1.5706,1.555,1.5549,1.5549,1.5548,0,0,1.5127,1.5184,1.5199,1.5224,1.5274,1.5315,1.5373,1.5429,1.5459,1.5502,1.5554,1.5632,1.5621,1.5657,1.5668,1.571,1.578,1.5694,1.5696,1.5711,1.588,1.5889,1.5904,1.578,1.5782,1.5784,1.5876,0,1.521,1.5307,1.5317,1.5406,1.5455,1.5452,1.5503,1.5541,1.5562,1.561,1.5635,1.569,1.5671,1.5692,1.5733,1.5763,1.5815,1.5756,1.5832,1.5835,1.5821,1.592,1.593,1.6015,1.5888,1.589,1.5892,0,1.532,1.5361,1.5454,1.5496,1.5517,1.5562,1.5614,1.5657,1.5702,1.5714,1.5752,1.5759,1.5822,1.579,1.588,1.584,1.5872,1.5891,1.5895,1.5905,1.5869,1.5935,1.6042,1.6056,1.5911,1.5909,1.5908,0,1.5382,1.5461,1.5526,1.5548,1.5599,1.563,1.5654,1.5695,1.5728,1.5775,1.5797,1.5852,1.5884,1.5928,1.595,1.5924,1.604,1.6009,1.6056,1.6055,1.6083,1.6081,1.6199,1.6099,1.6099,1.6098,1.6098,0,1.5475,1.5533,1.5555,1.5596,1.5661,1.5673,1.5739,1.5762,1.5798,1.5846,1.5849,1.5895,1.592,1.5971,1.5989,1.6062,1.6076,1.6091,1.6096,1.6092,1.6091,1.6115,1.6111,1.6102,1.6101,1.61,1.61,0,1.5556,1.5573,1.5645,1.5685,1.5696,1.5743,1.578,1.5822,1.584,1.5902,1.5917,1.5949,1.6009,1.6034,1.611,1.6122,1.6207,1.6206,1.6191,1.6193,1.6238,1.6235,1.6379,1.6399,1.6283,1.6284,1.6285,0,1.5616,1.5659,1.5703,1.5733,1.5756,1.5805,1.5837,1.5852,1.5886,1.5939,1.5975,1.6034,1.6082,1.6178,1.6212,1.6269,1.6272,1.6318,1.6281,1.6276,1.6276,1.6274,1.6279,1.6326,1.6327,1.6328,1.6329,0,1.5721,1.5726,1.577,1.5818,1.5855,1.5894,1.5933,1.5958,1.5979,1.6019,1.6077,1.6114,1.6188,1.6248,1.6307,1.6336,1.6338,1.6339,1.6354,1.6352,1.6342,1.635,1.6212,1.6337,1.6336,1.6336,1.6335,1.6335,1.5795,1.5834,1.587,1.592,1.5949,1.5984,1.6025,1.6047,1.6095,1.6154,1.616,1.6224,1.6269,1.6348,1.6378,1.6431,1.642,1.6441,1.6446,1.6452,1.6456,1.6331,1.6442,1.6442,1.6442,1.6442,1.6442,0,1.5903,1.5925,1.597,1.6021,1.6061,1.6052,1.6094,1.6129,1.6184,1.6222,1.6268,1.6337,1.6394,1.643,1.6489,1.6525,1.6527,1.654,1.654,1.6547,1.6461,1.6444,1.6537,1.6537,1.6537,1.6537,1.6537,1.6537,1.5963,1.6028,1.6038,1.6119,1.6142,1.6201,1.6226,1.626,1.629,1.6365,1.6411,1.6432,1.6471,1.6533,1.6586,1.6596,1.6619,1.6633,1.6643,1.6562,1.6553,1.6543,1.6527,1.6637,1.6637,1.6724,1.6725,1.6726]},{"header":{"parameterUnit":"m.s-1","parameterCategory":1,"la1":30.2991,"la2":30.254,"lo1":-89.0895,"lo2":-89.0444,"dy":0.0017,"dx":0.0017,"nx":28,"ny":28,"refTime":"2023-06-19T21:00:00:Z","depth":0,"parameterNumber":3,"parameterNumberName":"V-component_of_WINDS"},"data":[0,0,0,0,0,0,0,0,0,0,0,0,0,0,0,0,0,0,0,0,0,0,0,0,0,0,0,0,0,0,0,0,0,0,0,0,0,0,0,0,0,0,0,0,0,0,0,0,0,0,0,0,0,0,0,0,0,0,0.5119,0.5117,0,0.5014,0.5013,0.5012,0.4959,0.4959,0.4959,0.4959,0.4852,0.4849,0.4846,0,0,0,0,0,0,0,0,0,0,0,0,0,0.5274,0.5271,0.5119,0.5117,0.5116,0.5014,0.5013,0.5011,0.4959,0.4959,0.4959,0.4959,0.4853,0.485,0.4846,0,0,0,0,0,0,0,0,0,0,0,0,0,0.5191,0.527,0.5119,0.5078,0.5073,0.5014,0.5013,0.5011,0.4959,0.4959,0.4959,0.4959,0.4854,0.485,0.4846,0.482,0,0,0.4833,0.4831,0,0,0,0,0,0,0,0,0.5196,0.5186,0.5085,0.508,0.5075,0.4999,0.5028,0.4947,0.4959,0.5002,0.4959,0.4959,0.4901,0.4893,0.4873,0.4815,0.4811,0.4832,0.483,0.4828,0.4827,0,0,0,0,0,0,0,0.5202,0.519,0.5077,0.5084,0.5078,0.5065,0.5053,0.5012,0.4953,0.4999,0.4994,0.4983,0.4898,0.4878,0.4871,0.4809,0.4833,0.4829,0.4826,0.4824,0.4725,0.4725,0,0,0,0,0,0,0.5214,0.5195,0.508,0.5074,0.5137,0.5062,0.5049,0.5024,0.4953,0.4943,0.4983,0.4981,0.4885,0.4876,0.4867,0.4832,0.4828,0.4824,0.4822,0.4725,0.4725,0.4725,0,0,0,0,0,0,0.5218,0.5205,0.5085,0.5133,0.5117,0.5059,0.5032,0.5022,0.5001,0.4942,0.4931,0.4973,0.4885,0.4873,0.4832,0.4827,0.4822,0.4818,0.4725,0.4725,0.4725,0.4763,0,0,0,0,0,0,0.5223,0.5206,0.5196,0.5134,0.5115,0.5052,0.5031,0.502,0.4994,0.499,0.4929,0.4919,0.4884,0.4839,0.4828,0.4821,0.4815,0.4725,0.4725,0.4725,0.4761,0.4764,0.4766,0,0,0,0,0,0.5228,0.521,0.5195,0.5182,0.51,0.5052,0.5041,0.5,0.4994,0.4983,0.4945,0.4921,0.483,0.4835,0.4822,0.4815,0.4725,0.4725,0.4725,0.476,0.4763,0.4766,0,0,0,0,0,0,0.5273,0.5202,0.5184,0.5146,0.5105,0.5043,0.5028,0.5005,0.4965,0.4963,0.4915,0.4902,0.4866,0.4836,0.4843,0.4786,0.4775,0.4773,0.4807,0.4809,0.4811,0.4818,0.4811,0,0,0,0,0,0.5279,0.5245,0.5184,0.5156,0.5137,0.5086,0.5063,0.5036,0.4992,0.4975,0.4934,0.4892,0.4854,0.483,0.4792,0.4757,0.4743,0.4746,0.4748,0.475,0.4748,0.4727,0.4728,0.4724,0.4724,0.4724,0,0,0.529,0.5246,0.5228,0.5164,0.513,0.5096,0.5072,0.5037,0.5012,0.4969,0.4928,0.4897,0.4848,0.481,0.4792,0.4784,0.4746,0.475,0.4752,0.4748,0.4727,0.4728,0.4728,0.4724,0.4724,0.4724,0,0,0.5292,0.5256,0.5229,0.5195,0.5143,0.5109,0.5103,0.5044,0.5022,0.498,0.4948,0.4917,0.4852,0.4818,0.4793,0.4784,0.476,0.4773,0.4783,0.4764,0.4764,0.4764,0.4761,0.476,0.4771,0.4771,0.4771,0,0.5312,0.526,0.5218,0.5185,0.5158,0.5118,0.509,0.5059,0.4998,0.498,0.4973,0.4892,0.4855,0.4809,0.4807,0.4788,0.4779,0.4779,0.4768,0.4767,0.4767,0.4763,0.4762,0.4773,0.4773,0.4773,0.4772,0,0.5287,0.5251,0.5235,0.5177,0.5148,0.5118,0.5072,0.5048,0.5023,0.4991,0.4949,0.4904,0.4857,0.4844,0.4819,0.4794,0.4792,0.4777,0.4765,0.477,0.4765,0.4763,0.4776,0.4775,0.4774,0.4774,0,0,0.5313,0.5233,0.5228,0.5201,0.5141,0.5113,0.5081,0.5034,0.5015,0.4974,0.4946,0.4893,0.4879,0.485,0.4822,0.4805,0.48,0.4792,0.479,0.4795,0.477,0.4781,0.478,0.4785,0.4785,0.4784,0.4774,0,0.5307,0.5248,0.521,0.5166,0.5133,0.5095,0.5068,0.5028,0.4997,0.4964,0.493,0.4893,0.4878,0.486,0.4842,0.4805,0.4795,0.4805,0.4758,0.4757,0.4771,0.4777,0.4789,0.4781,0.4772,0.4772,0.4771,0,0.5291,0.5251,0.5205,0.5149,0.5134,0.511,0.5064,0.5033,0.4988,0.4967,0.4935,0.4906,0.4871,0.4863,0.4814,0.4823,0.4801,0.478,0.4779,0.4773,0.4764,0.477,0.4778,0.4777,0.4768,0.4769,0.4769,0,0.5315,0.525,0.5213,0.5192,0.5126,0.511,0.5082,0.5036,0.5011,0.4971,0.4954,0.4911,0.4888,0.4855,0.4816,0.4813,0.4771,0.4759,0.4752,0.4753,0.4744,0.4745,0.4748,0.4732,0.4732,0.4732,0.4732,0,0.5311,0.5284,0.5223,0.5201,0.5169,0.5126,0.5096,0.5064,0.5025,0.4996,0.4961,0.4934,0.4884,0.4852,0.4821,0.4785,0.4775,0.4757,0.4749,0.4759,0.4762,0.4744,0.4743,0.4732,0.4732,0.4732,0.4732,0,0.5331,0.529,0.5247,0.5189,0.5174,0.5153,0.5103,0.508,0.5048,0.5011,0.5,0.4949,0.4909,0.4867,0.4813,0.4792,0.4758,0.4747,0.4773,0.4768,0.4763,0.4764,0.4754,0.475,0.4738,0.4738,0.4739,0,0.5331,0.5309,0.5249,0.5227,0.52,0.5165,0.5139,0.5096,0.507,0.5017,0.5001,0.4958,0.4922,0.486,0.4818,0.4776,0.4764,0.4763,0.4757,0.4769,0.4763,0.4765,0.4762,0.4765,0.4765,0.4765,0.4766,0,0.5335,0.5316,0.528,0.5237,0.5207,0.517,0.5133,0.5117,0.5067,0.504,0.4998,0.497,0.4915,0.4873,0.4827,0.4798,0.4773,0.4768,0.4764,0.4774,0.479,0.4781,0.4777,0.4768,0.4768,0.4768,0.4768,0.4767,0.5345,0.5324,0.5278,0.5239,0.5207,0.5173,0.5148,0.5113,0.5078,0.5029,0.5006,0.4965,0.4921,0.4856,0.4828,0.4795,0.4788,0.4782,0.478,0.4779,0.4782,0.4796,0.4786,0.4786,0.4786,0.4786,0.4786,0,0.5347,0.5316,0.528,0.5229,0.5199,0.5179,0.5137,0.5112,0.5076,0.5037,0.5002,0.4955,0.4915,0.487,0.4827,0.481,0.4797,0.48,0.48,0.4794,0.4791,0.4799,0.481,0.481,0.481,0.481,0.481,0.481,0.5344,0.5307,0.5283,0.523,0.5199,0.5158,0.5136,0.5104,0.5073,0.5022,0.4988,0.4959,0.4918,0.4872,0.4834,0.4822,0.4808,0.4813,0.4798,0.4796,0.4794,0.4792,0.4799,0.4811,0.4811,0.4803,0.4803,0.4803]}]]